Simultaneous Nadir Overpasses (SNOs) Predictions

Prediction of SNOs between METOP-A and TERRA Satellite Orbit:

Table of predicted SNOs for the next 14.0 days since TLE Epoch: 2/7/2016
Index Date (METOP-A) Time (METOP-A) Lat,Lon (METOP-A) SZA (METOP-A ) Date (TERRA) Time (TERRA) Lat,Lon (TERRA) SZA (TERRA ) Distance(km) Time Diff (sec)
1 02/08/2016 01:06:59 81.29,-149.95 98.77 02/08/2016 01:07:30 81.30,-149.85 98.80 1.68 31
2 02/08/2016 01:57:38 -81.30, 17.92 81.18 02/08/2016 01:56:56 -81.31, 18.03 81.18 2.17 42
3 02/10/2016 20:41:20 81.29, -83.43 97.89 02/10/2016 20:41:43 81.29, -83.49 97.89 1.03 23
4 02/10/2016 21:31:59 -81.30, 84.47 82.07 02/10/2016 21:31:09 -81.31, 84.42 82.09 0.94 50
5 02/13/2016 16:15:42 81.29, -16.95 96.97 02/13/2016 16:15:56 81.30, -16.84 96.99 2.02 14
6 02/13/2016 17:06:22 -81.30, 150.59 83.02 02/13/2016 17:05:23 -81.30, 150.72 83.04 2.12 59
7 02/16/2016 11:50:04 81.29, 49.49 96.02 02/16/2016 11:50:10 81.29, 49.34 96.00 2.80 6
8 02/16/2016 12:40:43 -81.30,-142.53 83.92 02/16/2016 12:39:36 -81.31,-142.70 83.97 2.78 67
9 02/19/2016 06:33:45 -81.29, -51.75 84.98 02/19/2016 06:34:56 -81.29, -51.87 84.97 2.09 71




NCC Satellite Simultaneous Nadir Overpasses (SNOs) Prediction Service
